Location: Central Falls
(41.8900°N, 71.3929°W)
Time: 10:57:05
(UTC+00:00)

A-11 Canister half - Pass Details

Date: 03 December 2023
Orbit: 1526 x 1682 km, 47.3° (Epoch: 20 February)

Event Time Altitude Azimuth Distance (km) Brightness Sun altitude
Rises 05:16:35 0° 293° (WNW) 4,912 - -68.4°
Reaches altitude 10° 05:19:46 10° 294° (WNW) 3,909 - -68.1°
Maximum altitude 05:29:49 85° 23° (NNE) 1,630 - -67.1°
Drops below altitude 10° 05:39:31 10° 114° (ESE) 3,779 - -66.0°
Sets 05:42:32 0° 115° (ESE) 4,743 - -65.7°
